FW0960 Weather Reports


time (UTC)temp
C
wind
direction
speed
KPH
gust
KPH
rain 1hr
cm
rain 24hr
cm
rain mn
cm
humidity
%
barometer
mb
20260904180055 29 186 0.0 4.8 0.00 1.60 1.60 76 1013.2
20260904175602 29 185 1.6 6.4 0.00 1.60 1.60 74 1013.3
20260904174633 29 186 1.6 6.4 0.00 1.60 1.60 75 1013.4
20260904173554 29 200 1.6 3.2 0.00 1.60 1.60 75 1013.3
20260904173049 28 201 1.6 3.2 0.00 1.60 1.60 74 1013.3
20260904171552 28 207 1.6 4.8 0.00 1.60 1.60 77 1013.4
20260904171053 28 180 1.6 4.8 0.00 1.60 1.60 77 1013.3
20260904170551 28 194 1.6 4.8 0.00 1.60 1.60 79 1013.4
20260904170052 28 205 1.6 3.2 0.00 1.60 1.60 78 1013.3
20260904165546 28 205 1.6 6.4 0.00 1.60 1.60 77 1013.4
20260904165055 28 205 3.2 9.7 0.00 1.60 1.60 80 1013.5
20260904164050 28 209 4.8 11.3 0.00 1.60 1.60 79 1013.6
20260904163548 28 210 3.2 11.3 0.00 1.60 1.60 79 1013.7
20260904163046 28 213 4.8 11.3 0.00 1.60 1.60 78 1013.8
20260904162546 28 213 4.8 9.7 0.00 1.60 1.60 78 1013.9
20260904162046 28 215 3.2 11.3 0.00 1.60 1.60 80 1013.9
20260904161618 28 227 3.2 11.3 0.00 1.60 1.60 80 1013.9
20260904160541 27 194 4.8 11.3 0.00 1.60 1.60 79 1014.0
20260904160038 27 182 4.8 9.7 0.00 1.60 1.60 82 1013.9
20260904155539 27 182 4.8 12.9 0.00 1.60 1.60 79 1013.9
20260904154113 27 175 3.2 9.7 0.00 1.60 1.60 82 1013.7
20260904153534 27 198 4.8 12.9 0.00 1.60 1.60 82 1013.8
20260904152034 26 210 4.8 11.3 0.00 1.60 1.60 83 1013.9
20260904151534 26 207 4.8 9.7 0.00 1.60 1.60 83 1013.7
20260904151034 26 146 4.8 16.1 0.00 1.60 1.60 86 1013.8
20260904150539 26 209 4.8 16.1 0.00 1.60 1.60 84 1013.9
20260904145531 26 160 6.4 14.5 0.00 1.60 1.60 87 1013.9
20260904144032 25 211 6.4 12.9 0.00 1.60 1.60 87 1013.9
20260904143535 25 215 6.4 12.9 0.00 1.60 1.60 88 1014.0
20260904142531 25 226 4.8 14.5 0.00 1.60 1.60 90 1013.9
20260904142032 25 173 4.8 14.5 0.00 1.60 1.60 91 1013.9
20260904141532 25 163 4.8 11.3 0.00 1.60 1.60 90 1013.9
20260904141029 25 207 3.2 11.3 0.00 1.60 1.60 92 1013.7
20260904140620 25 205 3.2 9.7 0.00 1.60 1.60 94 1013.7
20260904134031 23 117 3.2 14.5 0.00 1.60 1.60 100 1013.7
20260904133530 23 208 3.2 12.9 0.00 1.60 1.60 100 1013.7
20260904133030 23 208 3.2 12.9 0.00 1.60 1.60 100 1013.6
20260904132535 23 227 3.2 12.9 0.00 1.60 1.60 100 1013.6
20260904131525 23 144 3.2 8.0 0.00 1.60 1.60 100 1013.7
20260904131017 23 146 3.2 8.0 0.00 1.60 1.60 100 1013.6
20260904130520 23 142 1.6 8.0 0.00 1.60 1.60 100 1013.5
20260904125016 23 109 1.6 9.7 0.00 1.60 1.60 100 1013.5
20260904124511 23 111 1.6 6.4 0.00 1.60 1.60 100 1013.6
20260904124012 23 111 1.6 9.7 0.00 1.60 1.60 100 1013.6
20260904123511 22 105 1.6 9.7 0.00 1.60 1.60 100 1013.6
20260904123010 22 107 1.6 4.8 0.00 1.60 1.60 100 1013.6
20260904122509 22 107 1.6 6.4 0.00 1.60 1.60 100 1013.6
20260904122007 22 107 1.6 9.7 0.00 1.60 1.60 100 1013.5
20260904121508 22 105 1.6 12.9 0.00 1.60 1.60 100 1013.5
20260904121014 22 105 1.6 12.9 0.00 1.60 1.60 100 1013.6
20260904120509 22 134 1.6 6.4 0.00 1.60 1.60 100 1013.6
20260904115503 22 134 1.6 9.7 0.00 1.60 1.60 100 1013.4
20260904115006 22 166 1.6 9.7 0.00 1.60 1.60 100 1013.3
20260904114503 22 201 1.6 6.4 0.00 1.60 1.60 100 1013.5
20260904114002 22 133 1.6 6.4 0.00 1.60 1.60 100 1013.6
20260904113502 22 133 1.6 8.0 0.00 1.60 1.60 100 1013.6
20260904112448 22 133 0.0 4.8 0.03 1.60 1.60 100 1013.6
20260904111946 22 133 1.6 4.8 0.03 1.60 1.60 100 1013.4
20260904111445 22 94 0.0 3.2 0.03 1.60 1.60 100 1013.3
20260904110936 22 130 0.0 4.8 0.03 1.60 1.60 100 1013.3
20260904110433 22 110 0.0 4.8 0.03 1.60 1.60 100 1013.2
20260904105932 22 108 0.0 3.2 0.03 1.60 1.60 100 1013.1
20260904105436 22 144 0.0 1.6 0.03 1.60 1.60 100 1013.0
20260904104933 21 146 0.0 1.6 0.03 1.60 1.60 100 1012.8
20260904104435 21 144 0.0 1.6 0.03 1.60 1.60 100 1012.5
20260904103933 21 142 0.0 1.6 0.03 1.60 1.60 100 1012.5
20260904103435 22 145 0.0 1.6 0.03 1.60 1.60 100 1012.4
20260904102437 22 144 0.0 1.6 0.00 1.57 1.57 100 1012.4
20260904101437 22 144 0.0 1.6 0.00 1.57 1.57 100 1012.5
20260904100932 22 144 0.0 1.6 0.00 1.60 1.57 100 1012.5
20260904095430 22 144 0.0 1.6 0.00 1.60 1.57 100 1012.6
20260904094932 22 144 0.0 1.6 0.00 1.60 1.57 100 1012.6
20260904094430 22 144 0.0 1.6 0.00 1.60 1.57 100 1012.7
20260904093927 22 144 0.0 1.6 0.00 1.60 1.57 100 1012.7
20260904093419 22 144 0.0 1.6 0.00 1.60 1.57 100 1012.7
20260904092918 22 144 0.0 1.6 0.03 1.60 1.57 100 1012.7
20260904092418 22 144 0.0 1.6 0.03 1.60 1.57 100 1012.9
20260904091918 22 144 0.0 1.6 0.03 1.60 1.57 100 1013.0
20260904091417 22 144 0.0 1.6 0.03 1.60 1.57 100 1012.7
20260904090410 22 144 0.0 0.0 0.03 1.60 1.57 100 1012.7
20260904085911 22 144 0.0 0.0 0.03 1.60 1.57 100 1012.8
20260904085409 22 144 0.0 0.0 0.03 1.60 1.57 100 1012.9
20260904084909 22 144 0.0 0.0 0.05 1.60 1.57 100 1012.8
20260904084404 22 144 0.0 0.0 0.05 1.60 1.57 100 1012.8
20260904083912 22 144 0.0 1.6 0.05 1.60 1.57 100 1012.8
20260904083404 22 144 0.0 1.6 0.08 1.60 1.57 100 1012.9
20260904082404 22 144 0.0 0.0 0.08 1.60 1.55 100 1013.2
20260904081906 22 144 0.0 1.6 0.10 1.60 1.55 100 1013.2
20260904081408 22 144 0.0 1.6 0.10 1.65 1.55 100 1013.4
20260904080904 22 144 0.0 1.6 0.15 1.65 1.55 100 1013.3
20260904075900 22 144 0.0 1.6 0.23 1.65 1.55 99 1013.5
20260904075348 22 144 0.0 1.6 0.28 1.65 1.55 99 1013.4
20260904074848 22 144 0.0 1.6 0.28 1.63 1.52 99 1013.5
20260904074353 22 144 0.0 0.0 0.28 1.63 1.52 99 1013.6
20260904073854 22 144 0.0 1.6 0.30 1.63 1.52 99 1013.5
20260904072850 22 144 0.0 1.6 0.30 1.60 1.50 99 1013.5
20260904071901 22 144 0.0 0.0 0.30 1.55 1.45 98 1013.6
20260904070851 22 144 0.0 0.0 0.36 1.50 1.40 98 1013.6
20260904070344 22 144 0.0 1.6 0.36 1.45 1.35 98 1014.0
20260904065844 22 144 0.0 4.8 0.53 1.42 1.30 98 1013.9
20260904065353 22 144 0.0 4.8 1.04 1.37 1.27 98 1014.0
20260904064845 22 144 0.0 3.2 1.24 1.35 1.24 98 1014.2
20260904064347 22 144 0.0 3.2 1.24 1.35 1.22 98 1014.4
20260904063858 22 144 0.0 1.6 1.22 1.32 1.22 98 1014.4
20260904063343 22 144 0.0 4.8 1.19 1.30 1.19 97 1014.4
20260904062842 22 144 0.0 4.8 1.19 1.30 1.19 97 1014.5
20260904062344 22 150 0.0 3.2 1.17 1.27 1.14 97 1014.9
20260904061849 22 112 1.6 6.4 1.14 1.24 1.12 97 1015.2
20260904061342 22 148 1.6 6.4 1.09 1.19 1.09 97 1015.7
20260904060844 22 54 1.6 8.0 1.04 1.14 1.04 97 1015.9
20260904060344 23 190 3.2 19.3 0.99 1.09 0.97 97 1015.7
20260904055842 23 215 3.2 19.3 0.79 0.89 0.76 95 1015.5
20260904055345 24 27 3.2 27.4 0.23 0.33 0.18 93 1015.5
20260904054844 25 148 3.2 27.4 0.00 0.10 0.00 91 1015.5
20260904054503 26 157 1.6 27.4 0.00 0.10 0.00 99 1014.3
20260904053345 26 167 0.0 0.0 0.00 0.10 0.00 99 1013.0
20260904052843 26 167 0.0 0.0 0.00 0.10 0.00 99 1012.9
20260904052345 25 167 0.0 0.0 0.00 0.10 0.00 99 1012.8
20260904051843 25 167 0.0 0.0 0.00 0.10 0.00 99 1012.8
20260904051344 25 167 0.0 0.0 0.00 0.10 0.00 98 1012.9
20260904050841 25 167 0.0 0.0 0.00 0.10 0.00 98 1013.0
20260904050344 25 168 0.0 0.0 0.00 0.10 0.00 98 1013.1
20260904045837 25 167 0.0 0.0 0.00 0.10 0.00 98 1013.2
20260904045336 25 167 0.0 0.0 0.00 0.10 0.00 98 1013.3
20260904044840 25 167 0.0 0.0 0.00 0.10 0.00 98 1013.5
20260904044341 25 167 0.0 0.0 0.00 0.10 0.00 98 1013.5
20260904043837 25 167 0.0 0.0 0.00 0.10 0.00 98 1013.3
20260904043331 25 168 0.0 0.0 0.00 0.10 0.00 98 1013.4
20260904042842 25 168 0.0 0.0 0.00 0.10 0.00 97 1013.2
20260904041834 25 167 0.0 0.0 0.00 0.10 0.00 97 1013.2
20260904041332 25 167 0.0 0.0 0.00 0.10 0.00 97 1013.2
20260904040833 25 167 0.0 0.0 0.00 0.10 0.00 97 1013.3
20260904040330 26 167 0.0 0.0 0.00 0.10 0.00 97 1013.4
20260904035830 26 167 0.0 0.0 0.00 0.10 0.10 97 1013.5
20260904035334 26 167 0.0 0.0 0.00 0.10 0.10 97 1013.6
20260904034331 26 167 0.0 0.0 0.00 0.10 0.10 97 1013.9
20260904033833 26 167 0.0 0.0 0.00 0.10 0.10 97 1014.0
20260904032832 26 167 0.0 0.0 0.00 0.10 0.10 97 1014.0
20260904031834 26 167 0.0 0.0 0.00 0.10 0.10 96 1014.0
20260904030830 26 167 0.0 0.0 0.00 0.10 0.10 96 1014.1
20260904030332 26 167 0.0 0.0 0.00 0.10 0.10 96 1014.0
20260904025830 26 167 0.0 0.0 0.00 0.10 0.10 96 1014.0
20260904024832 26 167 0.0 0.0 0.00 0.10 0.10 95 1014.0
20260904024330 26 167 0.0 0.0 0.00 0.10 0.10 95 1014.0
20260904023831 26 167 0.0 0.0 0.00 0.10 0.10 95 1014.0
20260904023333 26 167 0.0 0.0 0.00 0.10 0.10 95 1014.0
20260904022831 26 168 0.0 0.0 0.00 0.10 0.10 95 1013.9
20260904022332 26 168 0.0 0.0 0.00 0.10 0.10 95 1014.0
20260904021833 26 167 0.0 0.0 0.00 0.10 0.10 95 1014.0
20260904021330 26 168 0.0 0.0 0.00 0.10 0.10 95 1014.1
20260904015834 26 168 0.0 0.0 0.00 0.10 0.10 94 1014.2
20260904015337 26 168 0.0 0.0 0.00 0.10 0.10 94 1014.4
20260904014332 26 168 0.0 0.0 0.00 0.10 0.10 94 1014.5
20260904013832 26 168 0.0 0.0 0.00 0.10 0.10 93 1014.6
20260904012320 26 167 0.0 0.0 0.00 0.10 0.10 93 1014.8
20260904011819 27 168 0.0 0.0 0.00 0.10 0.10 93 1014.8
20260904011320 27 168 0.0 0.0 0.00 0.10 0.10 92 1014.8
20260904010816 27 168 0.0 0.0 0.00 0.10 0.10 92 1014.8
20260904010314 27 168 0.0 0.0 0.00 0.10 0.10 91 1014.8
20260904005315 27 168 0.0 0.0 0.00 0.10 0.10 91 1014.8
20260904004812 27 167 0.0 0.0 0.00 0.10 0.10 90 1014.7
20260904004313 27 167 0.0 0.0 0.00 0.10 0.10 90 1014.6
20260904003812 27 167 0.0 0.0 0.00 0.10 0.10 90 1014.6
20260904003308 27 168 0.0 0.0 0.00 0.10 0.10 90 1014.4
20260904002818 27 168 0.0 0.0 0.00 0.10 0.10 89 1014.5
20260904002310 27 167 0.0 0.0 0.00 0.10 0.10 89 1014.6
20260904001807 28 168 0.0 0.0 0.00 0.10 0.10 89 1014.5
20260904001306 28 167 0.0 0.0 0.00 0.10 0.10 89 1014.3
20260904000809 28 168 0.0 0.0 0.00 0.10 0.10 88 1014.2
20260904000307 28 167 0.0 0.0 0.00 0.10 0.10 88 1014.0
20260903235805 28 167 0.0 0.0 0.00 0.10 0.10 87 1014.0
20260903235305 28 167 0.0 0.0 0.00 0.10 0.10 87 1013.8
20260903234800 28 167 0.0 0.0 0.00 0.10 0.10 87 1013.7
20260903234258 28 167 0.0 0.0 0.00 0.10 0.10 87 1013.9
20260903232756 28 167 0.0 0.0 0.00 0.10 0.10 86 1014.0
20260903232253 29 167 0.0 0.0 0.00 0.10 0.10 86 1013.8
20260903231255 29 167 0.0 0.0 0.00 0.10 0.10 85 1013.9
20260903230748 29 167 0.0 1.6 0.00 0.10 0.10 84 1014.0
20260903230249 29 168 0.0 1.6 0.00 0.10 0.10 84 1013.8
20260903225248 30 168 0.0 0.0 0.00 0.10 0.10 83 1013.6
20260903224749 30 167 0.0 0.0 0.00 0.10 0.10 83 1013.8
20260903224247 30 167 0.0 1.6 0.00 0.10 0.10 82 1013.7
20260903223748 30 167 0.0 1.6 0.00 0.10 0.10 81 1013.7
20260903223245 30 161 0.0 1.6 0.00 0.10 0.10 81 1013.8
20260903222802 30 161 0.0 1.6 0.00 0.10 0.10 80 1013.7
20260903222243 30 157 0.0 1.6 0.00 0.10 0.10 79 1013.7
20260903221746 30 157 0.0 1.6 0.00 0.10 0.10 78 1013.8
20260903221247 30 179 0.0 3.2 0.00 0.10 0.10 77 1013.7
20260903220740 30 180 0.0 3.2 0.00 0.10 0.10 77 1013.9
20260903215739 30 189 0.0 3.2 0.00 0.10 0.10 77 1013.9
20260903214743 30 154 1.6 3.2 0.00 0.10 0.10 78 1013.6
20260903214248 30 159 1.6 6.4 0.00 0.10 0.10 77 1013.9
20260903213749 30 182 1.6 6.4 0.00 0.10 0.10 78 1013.9
20260903213241 30 178 1.6 6.4 0.00 0.10 0.10 76 1013.8
20260903212745 30 153 1.6 8.0 0.00 0.10 0.10 76 1013.9
20260903212235 31 178 1.6 8.0 0.00 0.10 0.10 76 1013.8
20260903211235 31 180 1.6 6.4 0.00 0.10 0.10 77 1014.0
20260903210736 31 123 1.6 6.4 0.00 0.10 0.10 78 1014.0
20260903210234 31 245 1.6 6.4 0.00 0.10 0.10 78 1014.0
20260903205732 31 167 1.6 6.4 0.00 0.10 0.10 79 1014.1
20260903204231 31 136 1.6 8.0 0.00 0.10 0.10 80 1014.3
20260903203729 31 156 1.6 6.4 0.00 0.10 0.10 81 1014.2
20260903203233 30 178 1.6 9.7 0.00 0.10 0.10 79 1014.4
20260903202731 31 157 1.6 9.7 0.00 0.10 0.10 79 1014.3
20260903202230 30 162 1.6 4.8 0.00 0.10 0.10 79 1014.4
20260903201731 30 172 1.6 4.8 0.00 0.10 0.10 80 1014.4
20260903200231 30 150 1.6 4.8 0.00 0.10 0.10 80 1014.5
20260903195739 30 165 0.0 3.2 0.00 0.10 0.10 82 1014.6
20260903194731 30 126 1.6 4.8 0.00 0.10 0.10 80 1014.7
20260903194233 30 166 1.6 4.8 0.00 0.10 0.10 81 1014.7
20260903193731 30 188 1.6 4.8 0.00 0.10 0.10 82 1014.7
20260903193229 30 99 1.6 3.2 0.00 0.10 0.10 83 1014.9
20260903192729 30 168 1.6 3.2 0.00 0.10 0.10 83 1014.9
20260903192232 30 185 1.6 4.8 0.00 0.10 0.10 82 1014.9
20260903191732 30 132 1.6 4.8 0.00 0.10 0.10 82 1014.9
20260903191230 30 146 1.6 3.2 0.00 0.10 0.10 83 1015.0
20260903190734 30 145 1.6 4.8 0.00 0.10 0.10 83 1015.0
20260903190228 29 138 1.6 4.8 0.00 0.10 0.10 83 1015.1
20260903185733 29 144 1.6 4.8 0.00 0.10 0.10 85 1015.1
20260903185231 29 134 1.6 4.8 0.00 0.10 0.10 85 1015.1
20260903183733 28 163 1.6 8.0 0.00 0.10 0.10 85 1015.3
20260903183233 29 163 1.6 8.0 0.00 0.10 0.10 84 1015.5
20260903182738 29 185 1.6 6.4 0.00 0.10 0.10 86 1015.5
20260903182257 28 164 1.6 6.4 0.00 0.10 0.10 85 1015.8
20260903181230 28 186 1.6 9.7 0.00 0.10 0.10 84 1015.9
20260903180738 28 136 1.6 9.7 0.00 0.10 0.10 85 1015.8